Weather History for PAPG - October, 2012

Change the Weather History Date:

Thursday, October 4, 2012

  Actual Average Record
Temperature  
Mean Temperature 46 °F -  
Max Temperature 51 °F 48 °F 62 °F (1988)
Min Temperature 41 °F 40 °F 29 °F (1990)
Degree Days  
Heating Degree Days 19    
Moisture  
Dew Point 40 °F    
Average Humidity 80    
Maximum Humidity 93    
Minimum Humidity 62    
Precipitation  
Precipitation 0.00 in - - ()
Sea Level Pressure  
Sea Level Pressure 30.50 in    
Wind  
Wind Speed 0 mph (ENE)    
Max Wind Speed 6 mph    
Max Gust Speed -    
Visibility 10 miles    
Events      
Averages and records for this station are not official NWS values.
T = Trace of Precipitation, MM = Missing Value Source: NWS Daily Summary

Daily Weather History Graph

Daily Weather History Graph

Search for Another Location

Airport or City:

Trip Planner

Search our weather history database for the weather conditions in past years. The results will help you decide how hot, cold, wet, or windy it might be!

Date:

Astronomy

Oct. 04, 2012 Rise Set
Actual Time 7:02 AM AKDT 6:16 PM AKDT
Civil Twilight 6:25 AM AKDT 6:54 PM AKDT
Nautical Twilight 5:40 AM AKDT 7:38 PM AKDT
Astronomical Twilight 4:55 AM AKDT 8:23 PM AKDT
Moon 8:01 PM AKDT (10/4) 12:22 PM AKDT (10/4)
Length of Visible Light 12h 29m
Length of Day
11h 13m
Waning Gibbous, 81% of the Moon is Illuminated
Oct 4
Waning Gibbous
Oct 7
Last Quarter
Oct 15
New
Oct 21
First Quarter
Oct 29
Full

Hourly Weather History & Observations

Time (AKDT) Temp. Windchill Dew Point Humidity Pressure Visibility Wind Dir Wind Speed Gust Speed Precip Events Conditions
12:16 AM 42.8 °F - 39.2 °F 87% 30.50 in 10.0 mi Calm Calm - N/A   Scattered Clouds
12:36 AM 42.8 °F - 39.2 °F 87% 30.51 in 10.0 mi Calm Calm - N/A   Overcast
12:56 AM 41.0 °F - 39.2 °F 93% 30.50 in 10.0 mi Calm Calm - N/A   Overcast
1:16 AM 41.0 °F - 37.4 °F 87% 30.50 in 10.0 mi Calm Calm - N/A   Overcast
1:36 AM 42.8 °F - 37.4 °F 81% 30.50 in 10.0 mi Calm Calm - N/A   Overcast
1:56 AM 42.8 °F - 37.4 °F 81% 30.50 in 10.0 mi Calm Calm - N/A   Overcast
2:16 AM 41.0 °F - 39.2 °F 93% 30.50 in 10.0 mi Calm Calm - N/A   Overcast
2:36 AM 41.0 °F - 37.4 °F 87% 30.50 in 10.0 mi Calm Calm - N/A   Overcast
2:56 AM 41.0 °F - 39.2 °F 93% 30.50 in 10.0 mi Calm Calm - N/A   Overcast
3:16 AM 42.8 °F - 39.2 °F 87% 30.50 in 10.0 mi Calm Calm - N/A   Overcast
3:36 AM 42.8 °F - 39.2 °F 87% 30.50 in 10.0 mi Calm Calm - N/A   Overcast
3:56 AM 42.8 °F - 39.2 °F 87% 30.50 in 10.0 mi Calm Calm - N/A   Overcast
4:16 AM 42.8 °F - 39.2 °F 87% 30.49 in 10.0 mi Calm Calm - N/A   Overcast
4:36 AM 42.8 °F - 39.2 °F 87% 30.49 in 10.0 mi Calm Calm - N/A   Overcast
4:56 AM 42.8 °F - 39.2 °F 87% 30.49 in 10.0 mi Calm Calm - N/A   Overcast
5:16 AM 42.8 °F - 39.2 °F 87% 30.50 in 10.0 mi Calm Calm - N/A   Overcast
5:36 AM 42.8 °F - 39.2 °F 87% 30.50 in 10.0 mi Calm Calm - N/A   Overcast
5:56 AM 42.8 °F - 39.2 °F 87% 30.49 in 10.0 mi Calm Calm - N/A   Overcast
6:16 AM 42.8 °F - 39.2 °F 87% 30.49 in 10.0 mi Calm Calm - N/A   Overcast
6:36 AM 42.8 °F - 39.2 °F 87% 30.49 in 10.0 mi Calm Calm - N/A   Overcast
6:56 AM 42.8 °F - 39.2 °F 87% 30.48 in 10.0 mi Calm Calm - N/A   Overcast
7:16 AM 42.8 °F - 39.2 °F 87% 30.49 in 10.0 mi Calm Calm - N/A   Overcast
7:36 AM 42.8 °F - 39.2 °F 87% 30.49 in 10.0 mi Calm Calm - N/A   Overcast
7:56 AM 42.8 °F - 39.2 °F 87% 30.49 in 10.0 mi Calm Calm - N/A   Overcast
8:48 AM 42.8 °F - 35.6 °F 76% 30.50 in 10.0 mi Calm Calm - N/A   Overcast
8:56 AM 44.6 °F - 41.0 °F 87% 30.50 in - Calm Calm - N/A   Unknown
9:16 AM 44.6 °F - 39.2 °F 81% 30.50 in 10.0 mi Calm Calm - N/A   Overcast
9:36 AM 44.6 °F - 39.2 °F 81% 30.50 in 10.0 mi Calm Calm - N/A   Overcast
9:56 AM 44.6 °F - 39.2 °F 81% 30.50 in 10.0 mi Calm Calm - N/A   Overcast
10:16 AM 44.6 °F 43.1 °F 39.2 °F 81% 30.50 in 10.0 mi ENE 3.5 mph - N/A   Overcast
10:36 AM 44.6 °F - 39.2 °F 81% 30.50 in 10.0 mi Calm Calm - N/A   Overcast
10:56 AM 46.4 °F - 39.2 °F 76% 30.51 in 10.0 mi Calm Calm - N/A   Overcast
11:16 AM 46.4 °F - 41.0 °F 81% 30.51 in 10.0 mi Calm Calm - N/A   Overcast
11:36 AM 48.2 °F - 42.8 °F 82% 30.51 in 10.0 mi Calm Calm - N/A   Overcast
11:56 AM 48.2 °F - 42.8 °F 82% 30.51 in 10.0 mi ENE 3.5 mph - N/A   Scattered Clouds
12:16 PM 48.2 °F - 41.0 °F 76% 30.52 in 10.0 mi East 5.8 mph - N/A   Scattered Clouds
12:36 PM 46.4 °F 45.2 °F 39.2 °F 76% 30.52 in 10.0 mi ENE 3.5 mph - N/A   Scattered Clouds
12:56 PM 48.2 °F - 39.2 °F 71% 30.52 in 10.0 mi ENE 5.8 mph - N/A   Overcast
1:16 PM 46.4 °F - 39.2 °F 76% 30.52 in 10.0 mi Calm Calm - N/A   Overcast
1:36 PM 48.2 °F - 39.2 °F 71% 30.52 in 10.0 mi Calm Calm - N/A   Overcast
1:56 PM 51.8 °F - 39.2 °F 62% 30.51 in 10.0 mi Calm Calm - N/A   Overcast
2:16 PM 48.2 °F - 39.2 °F 71% 30.51 in 10.0 mi ENE 3.5 mph - N/A   Overcast
2:36 PM 48.2 °F - 39.2 °F 71% 30.51 in 10.0 mi ENE 3.5 mph - N/A   Overcast
2:56 PM 50.0 °F - 37.4 °F 62% 30.52 in 10.0 mi Calm Calm - N/A   Overcast
3:16 PM 48.2 °F - 41.0 °F 76% 30.52 in 10.0 mi ENE 3.5 mph - N/A   Overcast
3:36 PM 48.2 °F - 39.2 °F 71% 30.52 in 10.0 mi ENE 3.5 mph - N/A   Overcast
3:56 PM 48.2 °F - 39.2 °F 71% 30.52 in 10.0 mi Calm Calm - N/A   Overcast
4:16 PM 48.2 °F - 39.2 °F 71% 30.51 in 10.0 mi Calm Calm - N/A   Overcast
4:36 PM 48.2 °F - 39.2 °F 71% 30.51 in 10.0 mi Calm Calm - N/A   Overcast
4:56 PM 48.2 °F - 39.2 °F 71% 30.50 in 10.0 mi Calm Calm - N/A   Mostly Cloudy
5:16 PM 48.2 °F - 39.2 °F 71% 30.50 in 10.0 mi Calm Calm - N/A   Mostly Cloudy
5:36 PM 48.2 °F - 39.2 °F 71% 30.49 in 10.0 mi Calm Calm - N/A   Mostly Cloudy
5:56 PM 48.2 °F - 42.8 °F 82% 30.50 in 10.0 mi Calm Calm - N/A   Mostly Cloudy
6:16 PM 48.2 °F - 39.2 °F 71% 30.50 in 10.0 mi Calm Calm - N/A   Mostly Cloudy
6:36 PM 48.2 °F - 41.0 °F 76% 30.50 in 10.0 mi East 3.5 mph - N/A   Mostly Cloudy
6:56 PM 46.4 °F - 41.0 °F 81% 30.50 in 10.0 mi Calm Calm - N/A   Overcast
7:16 PM 46.4 °F - 39.2 °F 76% 30.50 in 10.0 mi Calm Calm - N/A   Overcast
7:36 PM 46.4 °F - 39.2 °F 76% 30.50 in 10.0 mi Calm Calm - N/A   Overcast
7:56 PM 46.4 °F - 39.2 °F 76% 30.51 in 10.0 mi Calm Calm - N/A   Overcast
8:16 PM 46.4 °F - 39.2 °F 76% 30.50 in 10.0 mi Calm Calm - N/A   Overcast
8:36 PM 46.4 °F - 39.2 °F 76% 30.50 in 10.0 mi Calm Calm - N/A   Overcast
8:56 PM 46.4 °F - 41.0 °F 81% 30.51 in 10.0 mi Calm Calm - N/A   Overcast
9:16 PM 46.4 °F 45.2 °F 39.2 °F 76% 30.51 in 10.0 mi ENE 3.5 mph - N/A   Overcast
9:36 PM 46.4 °F - 39.2 °F 76% 30.51 in 10.0 mi Calm Calm - N/A   Overcast
9:56 PM 46.4 °F 45.2 °F 41.0 °F 81% 30.51 in 10.0 mi East 3.5 mph - N/A   Overcast
10:16 PM 46.4 °F 45.2 °F 41.0 °F 81% 30.51 in 10.0 mi East 3.5 mph - N/A   Overcast
10:36 PM 46.4 °F - 39.2 °F 76% 30.51 in 10.0 mi Calm Calm - N/A   Overcast
10:56 PM 46.4 °F - 41.0 °F 81% 30.51 in 10.0 mi Calm Calm - N/A   Overcast
11:16 PM 46.4 °F - 41.0 °F 81% 30.51 in 10.0 mi Calm Calm - N/A   Overcast
11:36 PM 46.4 °F - 41.0 °F 81% 30.51 in 10.0 mi Calm Calm - N/A   Overcast
11:56 PM 46.4 °F - 41.0 °F 81% 30.50 in 10.0 mi Calm Calm - N/A   Overcast